Location: Allos
(44.2333°N, 6.6333°E)
Time: 05:22:41
(UTC+00:00)

MOS 1 Rocket - Pass Details

Date: 01 December 2020
Orbit: 613 x 831 km, 97.4° (Epoch: 24 January)

Event Time Altitude Azimuth Distance (km) Brightness Sun altitude
Exits shadow 18:52:45 36° 338° (NNW) 1,300 4.7 -31.0°
Maximum altitude 18:54:31 49° 289° (WNW) 1,058 4.4 -31.3°
Drops below altitude 10° 18:59:39 10° 216° (SW) 2,393 6.4 -32.2°
Sets 19:02:01 0° 211° (SSW) 3,299 7.1 -32.7°
